Location: Hradec Kralove
(50.2170°N, 15.8330°E)
Time: 19:20:48
(UTC+01:00)

A-11 Canister half - Visible Passes

Search period start: 30 January 2023 00:00
Search period end: 09 February 2023 00:00
Orbit: 1525 x 1683 km, 47.3° (Epoch: 30 January)

Date Brightness Start Highest point End Pass type
(mag) Time Alt. Az. Time Alt. Az. Time Alt. Az.
30 Jan 11.0 05:20:01 10° S 05:26:36 22° SE 05:33:14 10° E visible
31 Jan 11.0 04:58:40 10° S 05:05:01 21° SE 05:11:24 10° E visible
01 Feb 11.0 04:37:20 10° S 04:43:25 20° SE 04:49:32 10° E visible
01 Feb 9.9 06:37:49 10° SW 06:46:38 50° SSE 06:55:38 10° E visible
02 Feb 10.9 04:16:01 10° SSE 04:21:50 19° SE 04:27:41 10° E visible
02 Feb 9.8 06:16:14 10° SW 06:25:00 49° SSE 06:33:54 10° E visible
03 Feb 10.9 03:54:44 10° SSE 04:00:15 17° SE 04:05:46 10° E visible
03 Feb 9.8 05:54:38 10° SW 06:03:21 47° SSE 06:12:11 10° E visible
04 Feb 10.9 03:33:29 10° SSE 03:38:40 16° SE 03:43:51 10° E visible
04 Feb 9.8 05:33:04 10° SW 05:41:43 46° SSE 05:50:28 10° E visible
05 Feb 10.9 03:12:41 11° SSE 03:17:05 15° SE 03:21:54 10° E visible
05 Feb 9.8 05:11:29 10° SW 05:20:04 44° SSE 05:28:45 10° E visible
06 Feb 10.8 02:52:48 13° SE 02:55:31 14° SE 02:59:53 10° E visible
06 Feb 9.8 04:51:08 15° SSW 04:58:26 43° SE 05:07:02 10° E visible
07 Feb 10.9 02:32:47 13° SE 02:33:57 13° SE 02:37:50 10° E visible
07 Feb 9.8 04:31:07 21° SSW 04:36:48 41° SE 04:45:18 10° E visible
07 Feb 9.3 06:31:42 10° WSW 06:40:56 71° SSE 06:50:18 10° E visible
08 Feb 10.9 02:12:39 12° ESE 02:12:39 12° ESE 02:15:40 10° ESE visible
08 Feb 9.8 04:10:58 27° S 04:15:10 40° SE 04:23:35 10° E visible
08 Feb 9.2 06:10:03 10° WSW 06:19:14 70° SSE 06:28:36 10° E visible
